DateTimeUTC,F1_A11,F1_S11,BsB_S11,BsG_S11,BsR_S11,BbsB_S11,BbsG_S11,BbsR_S11,BaB_A11,BaG_A11,BaR_A11,Tu_S11,T_S11,Uu_S11,U_S11,P_S11,T1_A11
2021-11-20T11:00:00Z,00000200,21000000,,,,,,,0000.10,0000.11,-000.09,18.3,25.4,,00.0,0642.9,30.8
2021-11-20T11:01:00Z,00000200,21000000,,,,,,,0000.17,0000.16,0000.38,18.3,25.4,,00.0,0642.9,30.8
2021-11-20T11:02:00Z,00000200,21000000,,,,,,,-000.05,0000.03,0000.02,18.2,25.3,,00.0,0642.9,30.8
2021-11-20T11:03:00Z,00000200,61000000,,,,,,,-000.04,-000.09,-000.35,18.2,25.3,,00.0,0642.9,30.8
2021-11-20T11:04:00Z,00000200,41000000,0000.04,0000.23,0000.20,0000.05,-000.16,0000.04,-000.08,0000.12,0000.31,18.4,25.2,,00.0,0643.7,30.8
2021-11-20T11:05:00Z,00000200,01000000,-000.06,-000.03,0000.16,0000.16,0000.24,-000.06,0000.38,0000.05,0000.19,18.5,25.1,,00.0,0643.7,30.8
2021-11-20T11:06:00Z,00000200,01000000,0000.54,0000.19,0000.23,0000.00,0000.16,-000.27,-000.09,0000.01,-000.10,18.5,25.1,,00.0,0643.7,30.8
2021-11-20T11:07:00Z,00000200,01000000,-000.32,0000.40,-000.22,0000.33,0000.26,-000.28,-000.44,-000.20,0000.18,18.5,25.1,,00.0,0643.8,30.8
2021-11-20T11:08:00Z,00000200,01000000,-000.07,0000.02,0000.30,-000.17,0000.03,-000.16,0000.41,0000.56,-000.17,18.6,25.1,,00.0,0643.8,30.8
2021-11-20T11:09:00Z,00000200,01000000,0000.55,-000.04,-000.12,0000.51,0000.18,-000.61,-000.08,-000.32,-000.09,18.6,25.1,,00.0,0643.8,30.8
2021-11-20T11:10:00Z,00000200,01000000,0000.32,0000.11,-000.01,-000.33,0000.17,-000.57,-000.28,-000.15,0000.04,18.6,25.1,,00.0,0643.8,30.8
2021-11-20T11:11:00Z,00000200,01000000,0000.66,0000.07,0000.15,0000.48,0000.01,-000.40,0000.00,-000.28,-000.36,18.6,25.2,,00.0,0643.8,30.8
2021-11-20T11:12:00Z,00000200,01000000,0000.45,-000.02,0000.04,0000.14,-000.03,-000.19,-000.25,-000.17,-000.15,18.5,25.1,,00.0,0643.8,30.8
2021-11-20T11:13:00Z,00000200,01000000,0000.78,0000.21,-000.06,-000.01,-000.23,-000.46,0000.18,0000.17,0000.26,18.4,25.1,,00.0,0643.7,30.8
2021-11-20T11:14:00Z,00000200,01000000,0000.10,-000.13,0000.15,0000.69,0000.27,-000.44,0000.01,0000.09,0000.14,18.3,25.0,,00.0,0643.7,30.7
2021-11-20T11:15:00Z,00000200,01000000,0000.07,-000.14,0000.12,-000.30,0000.00,-000.19,0000.11,0000.01,-000.21,18.2,25.0,,00.0,0643.7,30.7
2021-11-20T11:16:00Z,00000200,01000000,-000.05,0000.33,0000.10,0000.23,0000.29,0000.06,0000.18,0000.11,-000.06,18.2,24.9,,00.0,0643.7,30.7
2021-11-20T11:17:00Z,00000200,01000000,0000.17,0000.57,0000.00,0000.77,-000.13,-000.18,0000.02,-000.04,0000.31,18.2,24.9,,00.0,0643.7,30.7
2021-11-20T11:18:00Z,00000200,01000000,-000.68,0000.26,-000.05,0000.01,0000.22,-000.32,0000.22,0000.20,0000.29,18.2,24.9,,00.0,0643.7,30.7
2021-11-20T11:19:00Z,00000200,01000000,-000.01,0000.27,-000.08,0000.39,-000.07,-000.02,-000.18,0000.01,-000.30,18.2,24.9,,00.0,0643.7,30.7
2021-11-20T11:20:00Z,00000200,01000000,0000.57,-000.02,0000.17,0000.50,-000.05,-000.40,0000.27,0000.13,0000.08,18.2,24.9,,00.0,0643.6,30.8
2021-11-20T11:21:00Z,00000200,01000000,0000.52,0000.38,0000.48,0001.31,0000.10,0000.12,-000.02,0000.16,0000.23,18.2,24.9,,00.0,0643.6,30.7
2021-11-20T11:22:00Z,00000200,01000000,0000.40,0000.15,0000.02,0000.22,0000.30,0000.09,-000.10,-000.01,-000.33,18.3,24.9,,00.0,0643.6,30.7
2021-11-20T11:23:00Z,00000200,01000000,0000.57,0000.03,0000.54,0000.42,0000.15,-000.16,0000.06,-000.18,0000.31,18.3,24.9,,00.0,0643.7,30.7
2021-11-20T11:24:00Z,00000200,01000000,0000.64,0000.45,0000.25,0000.51,0000.32,0000.02,0000.10,0000.00,0000.04,18.3,24.9,,00.0,0643.6,30.8
2021-11-20T11:25:00Z,00000200,01000000,0000.22,0000.06,0000.09,0000.45,-000.36,-000.16,-000.01,0000.21,-000.10,18.3,24.9,,00.0,0643.6,30.8
2021-11-20T11:26:00Z,00000200,01000000,-000.52,0000.26,-000.14,0000.24,0000.10,-000.18,0000.35,0000.46,0000.50,18.3,24.9,,00.0,0643.5,30.8
2021-11-20T11:27:00Z,00000200,01000000,-000.20,0000.23,0000.06,-000.04,-000.00,-000.43,-000.06,0000.06,-000.24,18.4,24.9,,00.0,0643.5,30.8
2021-11-20T11:28:00Z,00000200,01000000,0000.03,0000.23,0000.00,0000.44,0000.02,-000.30,-000.16,-000.29,0000.08,18.4,25.0,,00.0,0643.6,30.8
2021-11-20T11:29:00Z,00000200,01000000,0000.43,0000.22,0000.34,-000.01,0000.12,-000.18,0000.01,0000.02,-000.01,18.4,24.9,,00.0,0643.6,30.8
2021-11-20T11:30:00Z,00000200,01000000,0000.51,0000.11,0000.19,-000.03,0000.41,-000.28,-000.11,-000.22,-000.45,18.4,24.9,,00.0,0643.7,30.8
2021-11-20T11:31:00Z,00000200,01000000,0000.67,0000.22,0000.07,0000.55,0000.25,-000.20,-000.15,0000.10,0000.30,18.3,24.9,,00.0,0643.7,30.7
2021-11-20T11:32:00Z,00000200,01000000,0000.26,0000.21,-000.04,0000.39,-000.03,-000.34,-000.01,-000.40,-000.32,18.2,24.9,,00.0,0643.6,30.7
2021-11-20T11:33:00Z,00000200,01000000,0000.00,-000.02,-000.08,0000.76,0000.33,0000.02,-000.09,0000.09,0000.13,18.2,24.9,,00.0,0643.6,30.7
2021-11-20T11:34:00Z,00000200,01000000,-000.39,0000.16,0000.20,0000.19,0000.62,-000.44,0000.03,0000.02,-000.15,18.2,24.9,,00.0,0643.6,30.8
2021-11-20T11:35:00Z,00000200,01000000,-000.10,0000.08,0000.04,0001.06,0000.01,-000.07,0000.03,0000.05,0000.42,18.2,24.9,,00.0,0643.6,30.8
2021-11-20T11:36:00Z,00000200,01000000,0000.32,0000.10,0000.26,0000.46,0000.19,-000.13,0000.05,0000.00,-000.33,18.3,24.9,,00.0,0643.6,30.8
2021-11-20T11:37:00Z,00000200,01000000,-000.32,0000.44,0000.29,0000.56,-000.01,-000.26,0000.15,0000.12,0000.07,18.3,24.9,,00.0,0643.6,30.8
2021-11-20T11:38:00Z,00000200,01000000,0000.31,0000.17,0000.22,0000.88,0000.36,-000.36,-000.21,-000.16,0000.03,18.3,24.9,,00.0,0643.6,30.8
2021-11-20T11:39:00Z,00000200,01000000,0000.51,0000.08,0000.19,0000.58,0000.38,-000.41,0000.10,-000.03,-000.23,18.3,24.9,,00.0,0643.6,30.8
2021-11-20T11:40:00Z,00000200,01000000,0000.16,0000.19,0000.10,-000.10,0000.13,0000.02,0000.07,0000.36,0000.14,18.3,24.9,,00.0,0643.6,30.8
2021-11-20T11:41:00Z,00000200,01000000,0004.42,0004.72,0005.66,0001.64,0001.34,0001.32,0018.33,0017.80,0018.08,18.4,24.9,,00.0,0643.1,30.8
2021-11-20T11:42:00Z,00000200,01000000,0003.50,0004.67,0005.01,0001.75,0001.05,0001.02,0018.33,0018.99,0019.30,18.4,24.9,,00.0,0641.9,30.8
2021-11-20T11:43:00Z,00000200,01000000,-000.17,0000.21,-000.02,0000.33,0000.24,-000.16,-000.55,-000.52,-000.82,18.4,24.9,,00.0,0641.9,30.8
2021-11-20T11:44:00Z,00000200,01000000,-000.24,-000.04,0000.14,0000.29,0000.15,0000.14,0000.23,-000.04,-000.11,18.4,24.9,,00.0,0641.9,30.8
2021-11-20T11:45:00Z,00000200,01000000,0000.30,-000.09,0000.35,0000.50,0000.30,0000.08,-000.41,-000.15,0000.11,18.4,24.9,,00.0,0641.9,30.8
2021-11-20T11:46:00Z,00000200,01000000,0000.70,0000.15,-000.11,0000.40,-000.27,-000.28,0000.01,-000.13,0000.06,18.3,24.9,,00.0,0641.9,30.8
2021-11-20T11:47:00Z,00000200,01000000,0000.17,0000.02,0000.52,0000.58,0000.06,-000.13,0000.08,0000.20,-000.28,18.3,24.9,,00.0,0641.9,30.8
2021-11-20T11:48:00Z,00000200,01000000,-000.33,0000.19,-000.08,0000.05,0000.30,0000.01,-000.39,0000.25,0000.01,18.2,24.9,,00.0,0641.8,30.8
2021-11-20T11:49:00Z,00000200,01000000,0000.81,0000.11,0000.13,0000.42,0000.15,0000.21,0000.48,-000.49,0000.24,18.2,24.9,,00.0,0641.9,30.8
2021-11-20T11:50:00Z,00000200,01000000,-000.33,0000.24,0000.34,0000.55,0000.02,-000.37,-000.41,-000.31,-000.09,18.2,24.9,,00.0,0641.8,30.8
2021-11-20T11:51:00Z,00000200,01000000,0000.67,0000.30,0000.02,-000.02,0000.00,-000.31,0000.43,0000.32,0000.03,18.2,24.9,,00.0,0641.8,30.8
2021-11-20T11:52:00Z,00000200,01000000,0000.48,0000.44,-000.25,-000.31,0000.23,-000.34,-000.09,0000.00,-000.04,18.2,24.9,,00.0,0641.8,30.8
2021-11-20T11:53:00Z,00000200,01000000,0000.33,0000.01,-000.16,-000.05,-000.04,-000.29,0000.14,-000.42,-000.14,18.3,24.9,,00.0,0641.7,30.8
2021-11-20T11:54:00Z,00000200,01000000,0000.21,0000.28,0000.18,0000.15,0000.16,0000.05,0000.08,0000.48,0000.37,18.3,24.9,,00.0,0641.7,30.8
2021-11-20T11:55:00Z,00000200,01000000,0000.47,0000.07,0000.40,0000.37,0000.16,-000.35,-000.14,0000.37,-000.25,18.3,24.9,,00.0,0641.7,30.8
2021-11-20T11:56:00Z,00000200,01000000,-000.67,0000.41,-000.07,0000.32,0000.37,0000.18,0000.27,-000.26,0000.65,18.3,24.9,,00.0,0641.7,30.8
2021-11-20T11:57:00Z,00000200,41000000,,,,,,,0000.15,0000.48,-000.31,18.4,25.0,,00.0,0641.6,30.8
2021-11-20T11:58:00Z,00000200,61000000,,,,,,,0000.05,-000.38,0000.06,18.1,25.1,,00.0,0640.8,30.8
2021-11-20T11:59:00Z,00000200,21000000,,,,,,,-000.22,-000.01,-000.10,18.1,25.2,,00.0,0640.8,30.8
